FW9535 Weather Reports


Display with metric or nautical units.
time (UTC)temp
F
wind
direction
speed
MPH
gust
MPH
rain 1hr
in
rain 24hr
in
rain mn
in
humidity
%
barometer
mb
20260905044351 82 173 12.0 17.0 0.00 0.00 0.00 40 1006.2
20260905042846 86 209 6.0 13.0 0.00 0.00 0.00 38 1005.5
20260905041343 86 275 12.0 33.0 0.00 0.00 0.00 37 1004.9
20260905035842 87 205 15.0 22.0 0.00 0.00 0.00 36 1004.7
20260905034341 85 273 13.0 18.0 0.00 0.00 0.00 36 1004.8
20260905032840 77 314 7.0 8.0 0.00 0.00 0.00 56 1004.8
20260905031338 79 294 2.0 3.0 0.00 0.00 0.00 55 1004.3
20260905025834 77 41 4.0 6.0 0.00 0.00 0.00 59 1004.4
20260905024332 77 332 5.0 8.0 0.00 0.00 0.00 58 1005.2
20260905022828 82 114 4.0 6.0 0.00 0.00 0.00 54 1005.6
20260905021325 80 72 7.0 9.0 0.00 0.00 0.00 54 1006.1
20260905015825 78 340 3.0 5.0 0.00 0.00 0.00 56 1006.7
20260905014320 78 81 6.0 10.0 0.00 0.00 0.00 53 1006.8
20260905012818 79 2 7.0 10.0 0.00 0.00 0.00 50 1007.3
20260905011317 79 278 4.0 7.0 0.00 0.00 0.00 49 1007.7
20260905005814 80 282 8.0 13.0 0.00 0.00 0.00 50 1008.3
20260905004310 79 302 4.0 5.0 0.00 0.00 0.00 49 1008.8
20260905002808 76 317 5.0 7.0 0.00 0.00 0.00 52 1009.2
20260905001309 77 0 4.0 7.0 0.00 0.00 0.00 51 1009.4
20260904235806 76 319 6.0 8.0 0.00 0.00 0.00 52 1009.6
20260904234303 73 348 4.0 5.0 0.00 0.00 0.00 57 1010.3
20260904232803 71 320 4.0 5.0 0.00 0.00 0.00 56 1010.8
20260904231300 70 335 3.0 3.0 0.00 0.00 0.00 59 1011.2
20260904225755 70 357 3.0 6.0 0.00 0.00 0.00 57 1011.4
20260904224255 69 311 3.0 5.0 0.00 0.00 0.00 59 1011.5
20260904222751 70 333 3.0 5.0 0.00 0.00 0.00 56 1012.0
20260904221247 71 284 3.0 5.0 0.00 0.00 0.00 55 1012.8
20260904215743 68 280 2.0 3.0 0.00 0.00 0.00 64 1013.0
20260904214241 64 331 2.0 2.0 0.00 0.00 0.00 67 1012.9
20260904212736 63 331 2.0 2.0 0.00 0.00 0.00 68 1012.7
20260904211231 63 319 0.0 0.0 0.00 0.00 0.00 68 1013.0
20260904205729 61 290 0.0 0.0 0.00 0.00 0.00 71 1012.9
20260904204228 57 305 2.0 2.0 0.00 0.00 0.00 77 1012.8
20260904202728 55 301 0.0 0.0 0.00 0.00 0.00 80 1013.1
20260904201225 54 302 0.0 0.0 0.00 0.00 0.00 83 1013.0
20260904195725 55 302 0.0 0.0 0.00 0.00 0.00 82 1013.3
20260904194224 54 262 0.0 0.0 0.00 0.00 0.00 83 1013.5
20260904192722 54 277 0.0 0.0 0.00 0.00 0.00 82 1013.4
20260904191221 55 236 1.0 2.0 0.00 0.00 0.00 80 1013.5
20260904185716 56 281 0.0 0.0 0.00 0.00 0.00 78 1013.4
20260904184217 58 289 0.0 0.0 0.00 0.00 0.00 73 1013.6
20260904182713 58 307 0.0 0.0 0.00 0.00 0.00 71 1013.5
20260904181209 59 302 0.0 0.0 0.00 0.00 0.00 72 1013.5
20260904175705 60 303 0.0 0.0 0.00 0.00 0.00 68 1013.6
20260904174200 60 312 0.0 0.0 0.00 0.00 0.00 69 1013.8
20260904172659 60 291 0.0 0.0 0.00 0.00 0.00 70 1013.9
20260904171200 60 302 0.0 0.0 0.00 0.00 0.00 70 1013.8
20260904165656 62 313 0.0 0.0 0.00 0.00 0.00 67 1014.0
20260904164152 62 320 0.0 0.0 0.00 0.00 0.00 66 1014.6
20260904162648 61 304 0.0 0.0 0.00 0.00 0.00 68 1014.9
20260904161145 60 305 0.0 0.0 0.00 0.00 0.00 71 1015.0
20260904155643 60 301 0.0 0.0 0.00 0.00 0.00 70 1015.3
20260904154141 61 300 0.0 0.0 0.00 0.00 0.00 68 1015.4
20260904152640 60 294 0.0 0.0 0.00 0.00 0.00 69 1015.3
20260904151140 60 285 0.0 0.0 0.00 0.00 0.00 69 1015.6
20260904145636 62 277 1.0 1.0 0.00 0.00 0.00 67 1015.6
20260904144133 60 289 0.0 0.0 0.00 0.00 0.00 71 1015.9
20260904142634 60 293 0.0 0.0 0.00 0.00 0.00 69 1015.8
20260904141131 60 263 0.0 0.0 0.00 0.00 0.00 70 1016.1
20260904135626 60 278 0.0 0.0 0.00 0.00 0.00 72 1015.8
20260904134123 61 299 0.0 0.0 0.00 0.00 0.00 69 1015.8
20260904132619 61 265 0.0 0.0 0.00 0.00 0.00 69 1015.7
20260904131116 63 278 0.0 0.0 0.00 0.00 0.00 65 1016.7
20260904125612 63 285 0.0 0.0 0.00 0.00 0.00 65 1016.7
20260904124109 63 210 1.0 1.0 0.00 0.00 0.00 65 1016.8
20260904122605 62 263 0.0 0.0 0.00 0.00 0.00 65 1016.9
20260904121102 62 283 0.0 0.0 0.00 0.00 0.00 65 1017.2
20260904115601 63 262 1.0 2.0 0.00 0.00 0.00 64 1017.2
20260904114056 63 218 2.0 2.0 0.00 0.00 0.00 63 1017.4
20260904112551 64 257 1.0 1.0 0.00 0.00 0.00 63 1017.5
20260904111050 64 240 0.0 0.0 0.00 0.00 0.00 62 1017.3
20260904105545 63 271 0.0 0.0 0.00 0.00 0.00 63 1017.2
20260904104042 64 282 0.0 0.0 0.00 0.00 0.00 62 1017.4
20260904102541 64 322 1.0 2.0 0.00 0.00 0.00 60 1017.1
20260904101040 65 192 2.0 2.0 0.00 0.00 0.00 59 1017.2
20260904095537 65 295 0.0 0.0 0.00 0.00 0.00 58 1017.0
20260904094034 65 207 2.0 5.0 0.00 0.00 0.00 58 1016.9
20260904092532 65 227 3.0 3.0 0.00 0.00 0.00 57 1017.2
20260904091030 66 250 0.0 1.0 0.00 0.00 0.00 56 1017.2
20260904085528 65 206 4.0 6.0 0.00 0.00 0.00 57 1016.9
20260904084025 66 181 3.0 3.0 0.00 0.00 0.00 55 1016.6
20260904082523 67 239 1.0 2.0 0.00 0.00 0.00 54 1016.4
20260904081021 65 230 3.0 3.0 0.00 0.00 0.00 56 1016.4
20260904075519 67 211 3.0 6.0 0.00 0.00 0.00 54 1016.1
20260904074014 67 282 0.0 0.0 0.00 0.00 0.00 55 1015.8
20260904072513 68 227 3.0 3.0 0.00 0.00 0.00 53 1015.7
20260904071009 70 258 3.0 5.0 0.00 0.00 0.00 49 1015.4
20260904065504 72 206 3.0 5.0 0.00 0.00 0.00 46 1015.3
20260904064002 74 296 1.0 2.0 0.00 0.00 0.00 46 1015.0
20260904062502 75 273 1.0 1.0 0.00 0.00 0.00 46 1015.2
20260904061001 75 200 3.0 3.0 0.00 0.00 0.00 45 1015.0
20260904055459 72 197 2.0 2.0 0.00 0.00 0.00 56 1015.2
20260904053958 73 317 2.0 2.0 0.00 0.00 0.00 57 1015.0
20260904052455 72 287 0.0 0.0 0.00 0.00 0.00 58 1015.1
20260904050951 72 300 3.0 5.0 0.00 0.00 0.00 57 1015.3
20260904045449 75 323 5.0 7.0 0.00 0.00 0.00 54 1015.4